Wind_Speed
38 36 35 33 31 30 29 26 27 29 30 31 31 32 32 31 33 35 37 37 39 40 38 38 36 36 36 36 36 36 40 38 32 32 34 33 35 36 34 33 34 34 35 36 32
38 35 33 30 31 31 31 32 32 33 33 34 32 34 35 33 35 37 36 38 39 38 40 40 38 36 37 37 38 37 39 35 35 34 36 36 34 36 36 37 36 36 39 39 38
41 40 36 37 37 36 37 38 39 39 40 39 39 38 38 38 38 38 39 38 39 39 40 40 41 40 40 40 40 41 39 37 34 34 36 36 34 37 38 42 40 41 41 42 41
37 38 38 39 40 41 42 43 45 46 46 47 47 44 41 43 43 44 43 43 40 40 43 43 44 45 45 45 44 46 43 40 40 37 37 37 40 40 44 39 40 41 39 39 40
45 44 45 45 46 46 46 45 47 50 51 51 50 50 49 47 46 47 49 48 45 46 46 47 47 47 48 49 49 48 47 46 45 44 42 42 43 44 43 42 44 42 42 42 42
53 51 52 52 52 54 54 54 53 54 54 55 56 52 52 52 53 51 52 51 50 50 50 51 51 51 52 53 51 54 51 50 49 48 47 46 46 46 42 45 45 46 45 43 41
59 56 57 56 59 60 58 59 60 61 62 60 60 60 57 56 59 58 59 58 58 59 59 56 55 55 55 55 54 50 54 54 51 49 49 47 47 46 46 44 45 46 43 41 40
64 61 56 52 55 59 60 58 61 61 64 67 67 66 62 62 65 64 63 62 60 59 61 64 62 60 58 59 57 54 51 48 51 48 50 50 45 43 45 45 44 41 41 41 41
62 58 54 52 56 57 58 60 64 66 69 68 68 67 70 70 67 66 66 66 66 66 65 66 67 66 63 61 59 59 55 51 53 50 53 52 49 46 46 44 41 41 40 39 39
58 57 59 56 55 58 59 62 66 67 67 68 68 71 72 71 70 69 71 70 70 69 70 70 73 68 65 64 61 57 52 52 56 57 54 51 47 43 40 41 40 42 43 39 38
58 59 57 59 58 57 58 62 66 68 66 66 68 67 70 70 69 69 71 75 73 71 69 68 72 72 65 64 59 53 55 55 57 56 53 47 46 45 40 40 42 46 45 41 40
59 59 58 58 56 56 61 62 62 65 65 63 64 67 65 64 61 62 63 64 69 68 59 60 63 63 67 63 58 55 57 57 56 49 52 48 45 43 42 43 45 43 42 41 41
57 53 53 53 53 53 56 59 59 62 60 58 59 59 56 56 52 52 51 55 57 52 57 58 51 62 58 59 56 58 58 56 51 49 48 46 44 44 42 41 41 40 39 40 40
51 50 51 49 54 54 56 56 57 56 58 56 54 48 44 45 44 45 46 51 51 52 62 57 36 63 72 65 60 56 47 48 48 46 44 46 38 44 37 36 36 37 38 40 41
50 49 49 51 53 53 54 56 54 49 55 54 36 32 31 27 27 31 38 43 44 47 56 51 54 51 49 54 51 45 47 46 48 46 43 42 40 37 37 34 34 36 40 41 42
49 49 50 51 51 52 51 47 45 47 49 41 33 37 30 33 33 31 33 34 32 37 39 41 43 45 41 38 44 38 42 48 44 41 43 37 37 28 40 34 35 37 39 40 41
50 51 50 50 49 46 43 41 39 48 41 41 40 37 37 34 34 34 28 28 30 31 33 41 41 42 43 44 43 38 37 36 36 39 36 34 32 25 44 38 36 36 37 38 40
51 51 49 46 40 40 36 42 45 48 43 35 33 31 34 41 37 37 36 32 32 32 32 44 42 42 40 38 37 34 30 25 22 20 21 36 36 42 40 40 35 34 35 37 37
51 49 44 39 38 39 42 39 41 42 44 41 40 39 34 33 36 36 35 33 33 32 32 38 34 33 30 27 23 23 25 20 28 29 30 27 34 38 39 40 38 37 35 35 35
50 44 40 37 36 37 40 39 39 39 33 35 33 29 32 37 35 34 32 35 32 32 34 37 31 29 24 21 21 23 24 23 26 26 26 24 27 27 39 37 36 34 36 35 33
47 42 37 36 35 37 38 36 34 41 39 34 35 31 31 33 34 38 35 28 28 31 36 33 28 25 26 27 30 29 31 32 31 31 28 26 26 35 35 35 35 35 36 35 32
44 40 37 36 36 36 35 35 31 30 32 32 30 31 31 33 36 34 31 26 24 22 21 28 31 27 26 28 31 34 35 34 34 34 34 34 33 37 35 34 35 36 37 37 34
41 38 37 37 35 34 32 36 33 30 29 29 29 30 30 32 34 30 30 26 24 18 27 33 33 28 26 30 33 34 33 31 31 33 35 32 34 36 35 38 40 39 39 38 36
36 36 37 35 33 32 30 30 31 30 30 30 33 31 28 28 32 28 32 31 28 29 32 28 24 27 29 30 27 25 25 25 26 28 29 31 32 38 39 43 42 37 41 43 43
34 35 33 32 31 31 32 29 29 29 29 29 30 22 23 24 26 29 30 29 35 29 37 35 32 32 28 20 18 16 19 22 25 27 33 32 38 39 44 46 48 48 49 48 48
34 33 30 30 30 30 29 28 27 26 25 24 23 20 22 24 20 26 30 24 24 25 23 23 19 16 13 13 18 22 25 28 29 30 34 37 40 46 45 48 52 53 54 55 52
31 28 29 28 27 25 24 24 23 22 22 25 21 23 20 21 20 21 23 23 20 18 14 11 9 15 18 21 23 26 27 30 33 36 40 41 43 41 44 49 50 51 50 49 45
Wind_Direction
271 269 270 272 270 270 272 274 276 279 282 285 289 290 288 290 291 291 286 289 290 290 285 283 278 275 274 272 269 266 266 269 269 266 262 256 257 263 266 267 269 273 271 268 266
270 271 270 270 273 275 273 275 277 281 283 286 288 291 291 291 290 293 290 290 288 287 288 284 277 274 273 272 270 268 268 272 269 268 266 264 261 264 265 266 265 265 265 267 267
274 269 269 266 272 274 277 278 280 280 281 282 286 285 284 284 287 292 292 288 289 287 283 282 279 274 271 269 271 269 272 269 270 266 267 268 266 262 267 269 266 264 265 269 270
271 271 272 273 276 278 280 279 279 279 279 280 281 284 286 285 284 289 287 288 286 283 285 281 278 276 272 269 268 271 269 271 269 267 266 268 268 269 270 270 269 270 271 270 270
274 275 276 279 279 281 283 282 286 284 281 281 281 279 282 284 288 287 285 282 282 284 280 281 278 274 274 272 271 269 270 271 271 271 270 269 271 269 271 272 272 273 272 271 269
276 279 279 280 281 281 282 284 284 287 283 282 280 281 282 284 288 285 283 283 283 279 276 276 276 275 272 272 271 272 269 269 270 269 268 267 267 269 273 272 274 275 273 271 270
278 278 280 282 283 282 284 285 286 286 287 285 282 283 283 289 290 287 282 281 279 278 276 270 271 271 272 269 270 271 271 267 267 268 268 268 267 268 270 272 272 273 274 274 270
278 280 281 282 284 285 286 288 287 289 290 289 287 286 285 286 288 284 277 275 272 271 270 269 266 265 264 269 268 266 267 269 268 265 265 264 266 269 268 271 273 274 272 272 272
279 279 280 283 285 288 289 289 289 289 289 289 291 293 293 291 282 276 270 267 264 265 261 260 261 260 258 260 264 265 265 268 268 262 260 263 266 267 269 269 271 272 272 271 271
278 279 281 284 287 289 291 291 291 291 292 294 292 290 291 286 282 273 268 264 258 255 253 253 253 251 253 254 257 263 264 259 262 264 264 265 265 264 263 266 273 276 275 272 270
281 283 284 285 288 289 288 292 293 294 293 282 285 286 283 281 276 270 266 265 261 258 253 258 252 251 252 252 254 256 256 257 259 262 263 260 261 261 263 268 271 273 274 272 271
281 284 285 286 288 288 291 292 291 288 282 280 282 286 282 281 276 272 266 261 261 259 257 255 261 255 254 253 255 252 250 253 255 255 257 255 257 258 262 266 269 270 269 269 269
280 280 283 285 285 285 281 286 287 284 283 282 284 283 280 274 272 268 264 263 257 254 257 260 247 243 244 249 252 248 244 246 248 248 250 252 257 261 264 265 266 265 264 266 265
276 277 280 277 275 281 280 283 282 281 279 281 280 282 277 274 269 264 268 267 266 252 256 243 263 248 243 241 239 241 238 240 245 244 250 248 256 260 261 258 257 259 262 263 263
270 273 270 271 276 274 278 276 279 277 275 283 284 285 280 276 276 265 268 268 269 264 266 270 263 264 253 240 221 227 236 242 242 241 243 251 256 256 258 251 254 255 257 258 258
263 263 265 266 268 272 273 275 272 269 272 266 279 278 272 272 278 275 273 276 269 267 266 266 265 268 271 251 250 231 225 233 238 239 243 245 251 257 258 253 250 250 252 255 258
259 261 261 262 265 265 268 265 261 256 260 264 274 272 262 277 274 275 276 277 273 266 263 253 255 256 263 267 262 262 256 240 239 239 244 246 245 236 254 255 252 251 251 255 259
257 261 260 261 262 264 263 261 255 256 251 257 271 266 264 271 271 272 275 273 272 272 257 251 244 242 245 248 252 251 246 241 246 244 249 249 248 248 250 254 255 255 255 259 263
257 260 262 260 257 255 249 256 262 253 247 257 265 267 260 263 262 270 272 272 262 263 261 258 249 253 244 247 242 241 233 228 229 227 237 254 250 252 251 251 256 258 258 261 265
252 256 255 252 250 249 251 258 253 261 264 257 253 257 261 265 267 268 266 267 265 262 263 256 244 252 244 229 223 229 232 237 238 237 246 251 252 255 254 255 255 256 257 259 264
251 253 251 251 248 248 251 256 260 254 256 250 252 257 260 259 260 263 271 273 271 263 252 251 245 240 229 221 223 231 232 233 236 243 242 250 251 259 255 260 260 260 259 261 266
247 248 250 251 251 249 254 249 258 255 245 252 255 256 252 252 255 261 268 267 267 263 247 222 240 246 252 248 243 240 240 237 238 247 246 250 251 259 263 262 262 263 263 262 262
243 243 247 250 252 248 251 252 254 253 248 255 259 259 253 249 248 249 250 252 243 250 236 248 248 246 247 245 239 235 238 241 243 243 248 250 259 264 269 266 262 266 269 268 266
237 240 245 248 250 248 251 250 250 256 252 253 259 257 243 234 240 243 236 224 222 231 230 239 237 238 247 246 240 242 244 246 248 253 259 259 262 270 268 268 268 259 266 268 268
233 236 241 246 248 245 249 250 248 251 247 245 245 237 227 223 230 231 235 235 225 231 238 247 249 248 250 247 249 256 263 264 265 264 263 264 264 263 265 270 271 271 269 267 268
229 233 237 241 244 244 251 244 238 241 228 222 224 221 220 222 217 231 238 241 239 242 241 242 230 236 248 271 271 266 266 269 268 268 269 268 269 268 271 271 269 267 267 269 271
226 228 234 237 235 238 235 224 219 211 206 196 209 210 214 219 210 213 221 224 227 236 234 238 258 265 267 270 271 270 273 275 276 275 273 274 275 280 281 278 276 273 270 268 264
Height
5792 5792 5792 5792 5791 5792 5792 5792 5792 5794 5794 5794 5794 5794 5793 5793 5793 5791 5791 5794 5793 5794 5795 5795 5794 5793 5793 5794 5794 5794 5791 5794 5799 5799 5800 5801 5801 5800 5800 5801 5800 5799 5799 5798 5800
5784 5783 5784 5783 5784 5784 5783 5784 5784 5786 5786 5787 5786 5785 5786 5786 5786 5785 5784 5785 5785 5785 5787 5787 5787 5786 5785 5785 5785 5785 5784 5788 5788 5789 5789 5791 5794 5793 5792 5791 5791 5791 5789 5789 5791
5776 5776 5775 5776 5775 5776 5776 5777 5777 5778 5779 5779 5779 5778 5778 5778 5779 5779 5778 5776 5778 5778 5777 5778 5779 5778 5778 5777 5777 5777 5777 5778 5779 5779 5779 5780 5784 5783 5783 5781 5781 5781 5781 5781 5782
5765 5766 5766 5766 5765 5766 5766 5766 5767 5768 5769 5770 5771 5771 5770 5771 5771 5771 5771 5770 5769 5769 5770 5769 5769 5769 5769 5768 5768 5769 5769 5769 5768 5770 5770 5771 5771 5774 5771 5774 5772 5772 5772 5773 5772
5755 5755 5755 5753 5754 5754 5754 5755 5756 5756 5757 5759 5760 5761 5762 5763 5763 5759 5760 5760 5762 5762 5760 5760 5760 5759 5759 5759 5759 5758 5760 5760 5759 5759 5761 5759 5760 5761 5762 5762 5761 5763 5763 5763 5762
5744 5743 5742 5741 5741 5741 5741 5742 5742 5744 5744 5745 5747 5748 5748 5753 5749 5748 5748 5748 5748 5750 5751 5751 5751 5750 5748 5749 5749 5747 5750 5749 5749 5749 5749 5749 5749 5748 5753 5750 5751 5751 5751 5752 5752
5729 5730 5730 5727 5727 5728 5728 5729 5729 5729 5731 5731 5731 5734 5738 5741 5734 5734 5733 5734 5733 5734 5736 5737 5739 5739 5738 5736 5738 5739 5738 5737 5738 5739 5737 5737 5738 5738 5739 5739 5739 5739 5739 5739 5740
5715 5716 5716 5714 5712 5713 5714 5714 5715 5715 5716 5717 5717 5719 5724 5725 5720 5719 5716 5719 5717 5717 5718 5721 5723 5725 5725 5724 5724 5726 5726 5727 5726 5728 5726 5725 5728 5729 5728 5728 5728 5728 5728 5728 5728
5700 5701 5701 5700 5699 5699 5699 5698 5699 5700 5701 5702 5701 5701 5706 5705 5700 5699 5699 5700 5697 5698 5699 5702 5704 5709 5708 5710 5712 5710 5715 5716 5715 5715 5712 5715 5718 5717 5717 5717 5717 5717 5716 5716 5716
5685 5685 5685 5685 5683 5684 5683 5682 5684 5685 5686 5682 5681 5681 5685 5680 5679 5679 5679 5680 5677 5677 5678 5680 5681 5687 5694 5692 5698 5697 5701 5702 5701 5702 5703 5705 5706 5706 5705 5706 5706 5706 5706 5706 5705
5669 5670 5669 5669 5668 5669 5666 5665 5668 5666 5665 5664 5661 5665 5657 5657 5657 5660 5657 5655 5656 5658 5661 5662 5661 5673 5676 5676 5681 5683 5685 5686 5687 5689 5692 5693 5694 5694 5693 5694 5694 5695 5696 5695 5694
5653 5653 5654 5654 5653 5652 5649 5649 5650 5645 5641 5645 5643 5647 5640 5635 5635 5635 5638 5637 5637 5641 5645 5641 5649 5661 5657 5661 5665 5667 5670 5672 5673 5675 5679 5681 5681 5682 5681 5682 5684 5684 5685 5684 5684
5636 5637 5637 5638 5638 5637 5635 5635 5633 5627 5616 5633 5629 5628 5623 5620 5621 5621 5620 5619 5621 5624 5627 5630 5645 5635 5635 5643 5649 5653 5656 5658 5659 5660 5666 5667 5669 5669 5670 5671 5673 5673 5673 5673 5673
5620 5621 5622 5622 5621 5623 5620 5619 5618 5614 5599 5615 5616 5614 5612 5607 5607 5606 5606 5606 5608 5613 5607 5613 5621 5617 5620 5626 5631 5637 5641 5643 5644 5650 5655 5656 5659 5656 5658 5659 5661 5661 5662 5663 5663
5605 5606 5607 5605 5605 5607 5608 5605 5606 5601 5587 5595 5603 5601 5601 5600 5598 5598 5596 5595 5597 5598 5599 5604 5600 5605 5607 5611 5609 5623 5624 5627 5632 5638 5641 5646 5649 5646 5647 5650 5651 5652 5652 5653 5654
5589 5591 5592 5590 5592 5594 5594 5594 5594 5590 5582 5583 5591 5591 5590 5591 5592 5590 5588 5588 5589 5587 5589 5593 5594 5594 5598 5600 5606 5607 5608 5616 5621 5625 5630 5636 5639 5637 5634 5639 5640 5642 5643 5644 5645
5573 5577 5577 5578 5581 5581 5581 5582 5581 5578 5578 5580 5581 5582 5582 5582 5583 5582 5582 5582 5582 5582 5583 5584 5585 5590 5594 5599 5600 5602 5606 5607 5610 5612 5623 5623 5629 5632 5623 5627 5631 5634 5635 5635 5635
5559 5563 5564 5564 5566 5568 5568 5569 5564 5566 5569 5572 5574 5573 5574 5574 5575 5574 5574 5575 5576 5577 5577 5577 5577 5578 5583 5588 5591 5594 5599 5603 5603 5608 5614 5614 5617 5614 5618 5619 5621 5624 5625 5625 5626
5545 5549 5551 5551 5553 5556 5555 5553 5554 5556 5559 5562 5564 5564 5562 5563 5566 5566 5566 5567 5568 5570 5572 5570 5570 5572 5575 5579 5585 5587 5589 5597 5596 5600 5604 5608 5607 5606 5609 5611 5613 5614 5615 5616 5616
5532 5535 5538 5540 5540 5542 5543 5544 5544 5547 5548 5552 5554 5555 5555 5554 5556 5556 5558 5558 5560 5563 5564 5564 5565 5566 5570 5575 5578 5581 5586 5589 5589 5593 5597 5603 5602 5601 5599 5602 5604 5604 5604 5605 5606
5520 5523 5526 5529 5529 5532 5533 5535 5536 5537 5540 5543 5544 5546 5546 5547 5547 5546 5548 5552 5553 5555 5556 5559 5561 5564 5567 5569 5572 5576 5578 5581 5583 5587 5590 5593 5596 5590 5591 5593 5593 5593 5594 5595 5597
5507 5512 5515 5517 5521 5522 5524 5525 5527 5527 5530 5532 5534 5536 5537 5538 5539 5541 5542 5546 5548 5550 5552 5554 5556 5559 5563 5565 5566 5567 5569 5572 5575 5580 5580 5582 5583 5581 5583 5584 5584 5583 5584 5585 5586
5495 5500 5504 5506 5510 5512 5514 5516 5518 5519 5521 5524 5524 5526 5528 5530 5531 5536 5539 5541 5542 5545 5549 5550 5553 5555 5556 5560 5560 5561 5564 5567 5569 5570 5571 5574 5575 5573 5574 5573 5572 5574 5575 5575 5576
5485 5489 5494 5497 5500 5502 5504 5506 5509 5511 5513 5515 5515 5517 5520 5521 5524 5530 5533 5537 5539 5543 5546 5547 5549 5551 5553 5553 5555 5556 5558 5559 5561 5563 5564 5564 5567 5563 5563 5561 5561 5563 5564 5564 5566
5475 5480 5484 5487 5491 5493 5495 5498 5501 5503 5506 5506 5506 5510 5513 5516 5519 5524 5528 5532 5536 5539 5541 5542 5544 5544 5546 5547 5548 5550 5551 5552 5554 5556 5555 5558 5555 5554 5551 5550 5550 5550 5550 5552 5554
5466 5471 5474 5478 5481 5484 5487 5490 5493 5496 5499 5499 5501 5505 5508 5512 5516 5520 5525 5528 5531 5534 5536 5537 5538 5539 5540 5541 5542 5544 5544 5544 5546 5546 5544 5544 5544 5539 5540 5539 5538 5539 5539 5539 5541
5457 5461 5466 5470 5473 5476 5480 5483 5485 5489 5492 5495 5498 5501 5505 5509 5513 5516 5520 5524 5527 5529 5530 5532 5534 5536 5536 5536 5536 5537 5536 5535 5534 5533 5532 5532 5530 5529 5526 5525 5524 5524 5524 5526 5528